COMSATBW-1

Last updated on Fri Jul 10 2026 00:03:02 GMT+0000 (Coordinated Universal Time)

1 35943U 09054B 26190.17475156 .00000037 00000+0 00000+0 0 9994 2 35943 0.0609 192.4284 0002686 286.4458 294.2197 1.00276231 61520
UTC large
Height (km)
Speed (km/s)
/
Latitude / Longitude
Inclination (degrees)
Orbital Period (minutes)
Azimuth
Elevation
Range (km)
Doppler Factor

Next 0 passes for location: London (51.5072 / 0.1276)

No passes found over London.
COMSATBW-1